Tracking 29892 objects as of 21-Nov-2024
HD Live streaming from Space Station
objects crossing your sky now

STARLINK-4273

Track STARLINK-4273 now!
10-day predictions
STARLINK-4273 is classified as:


NORAD ID: 53181
Int'l Code: 2022-083BB
Perigee: 480.6 km
Apogee: 487.9 km
Inclination: 53.2 °
Period: 94.1 minutes
Semi major axis: 6855 km
RCS: Unknown
Launch date: July 17, 2022
Source: United States (US)
Launch site: AIR FORCE EASTERN TEST RANGE (AFETR)
Your satellite tracking list
Your tracking list is empty




NASA's NSSDC Master Catalog

Two Line Element Set (TLE):
1 53181U 22083BB  24325.74315024  .00056000  00000-0  19252-2 0  9997
2 53181  53.1947  82.3492 0005309 216.3091 143.7550 15.29568685130493
Source of the keplerian elements: AFSPC